Regional Weather Roundup
Issued by NWS

Home | Current Version | Previous Version | Graphics & Text | Print | Product List | Glossary On
Versions: 1 2 3 4 5 6 7 8 9 10 11 12 13 14 15 16 17 18 19 20 21 22 23 24 25 26 27 28 29 30 31 32 33 34 35 36 37 38 39 40 41 42 43 44 45 46 47 48 49 50
000
ASUS43 KTOP 031359
RWRKS

WEATHER ROUNDUP FOR KANSAS
NATIONAL WEATHER SERVICE GOODLAND KS
900 AM CDT SUN MAY 03 2015

NOTE:  "FAIR" INDICATES FEW OR NO CLOUDS BELOW 12,000 FEET WITH NO
SIGNIFICANT WEATHER AND/OR OBSTRUCTIONS TO VISIBILITY.

KSZ001>006-013>018-027>032-041>047-031500-
NORTHWEST KANSAS

CITY           SKY/WX    TMP DP  RH WIND       PRES   REMARKS
GOODLAND       SUNNY     62  47  57 W8        29.87R
HAYS           PTSUNNY   68  48  49 CALM      29.81S
HILL CITY      SUNNY     67  50  54 W3        29.82R
RUSSELL        PTSUNNY   70  52  52 SW9       29.79S
$$

KSZ061>065-074>080-084>089-031500-
SOUTHWEST KANSAS

CITY           SKY/WX    TMP DP  RH WIND       PRES   REMARKS
DODGE CITY     SUNNY     64  49  57 S3        29.85R
ELKHART          N/A     60  45  57 W12         N/A
GARDEN CITY    SUNNY     66  46  48 NW8       29.85R
GREAT BEND     MOSUNNY   64  54  68 SW8       29.82S
LIBERAL        PTSUNNY   66  48  52 NW6       29.89R
$$

KSZ066>073-081>083-090>101-031500-
SOUTHEAST KANSAS

CITY           SKY/WX    TMP DP  RH WIND       PRES   REMARKS
CHANUTE        MOSUNNY   69  55  60 S21G28    29.92S
COFFEYVILLE    MOSUNNY   65  55  70 S13       29.93S
HUTCHINSON     PTSUNNY   68  56  65 S13       29.83R
MEDICINE LODGE   N/A     64  56  75 S7        29.85S
NEWTON         PTSUNNY   64  52  63 S17G28    29.86S
PARSONS        PTSUNNY   67  56  67 S9        29.94S
WICHITA INTL   PTSUNNY   66  54  65 S17       29.85S
WICHITA JABRA  MOSUNNY   66  56  70 S18G25    29.85R
WICHITA MCCONL PTSUNNY   67  56  66 S20       29.86R
WINFIELD       MOSUNNY   67  55  65 S16G23    29.90R
$$

KSZ007>012-019>026-033>040-048>060-102>105-031500-
NORTHEAST KANSAS

CITY           SKY/WX    TMP DP  RH WIND       PRES   REMARKS
CONCORDIA      MOSUNNY   68  54  60 SW13G22   29.78R
EMPORIA        MOSUNNY   67  55  65 S21G28    29.85R
LAWRENCE       PTSUNNY   65  55  70 S13       29.86F
MANHATTAN      MOSUNNY   69  58  67 SW14      29.80S
OLATHE IND     PTSUNNY   66  55  67 S16       29.90S
OLATHE EXE     CLOUDY    64  54  69 S10       29.89S
SALINA         MOSUNNY   69  56  62 S20       29.80S
TOPEKA BILLARD PTSUNNY   66  56  70 S14G22    29.85R
TOPEKA FORBES  CLOUDY    66  57  72 S13       29.85R
$$


USA.gov is the U.S. government's official web portal to all federal, state and local government web resources and services.